• In Lithuania
  • List of Countries
  • For 7 days
  • Water Temperature
  • Satellite Maps
  • Weather Map
  • Weather Widgets
  • user-avatar
    Login

    Hourly Weather Barra

    Today, 17 December, Sunday

    Time Temperature Precipitation Wind Pressure Humidity
    00:00 +26°C° 0.1 mm 3 mps 747 mmHg 90%
    01:00 +26°C° 0.1 mm 3 mps 747 mmHg 91%
    02:00 +26°C° 0.2 mm 3 mps 747 mmHg 91%
    03:00 +25°C° 0.2 mm 3 mps 747 mmHg 92%
    04:00 +25°C° 0 mm 3 mps 746 mmHg 93%
    05:00 +26°C° 0.1 mm 3 mps 747 mmHg 90%
    06:00 +26°C° 0.1 mm 3 mps 747 mmHg 87%
    07:00 +27°C° 0.1 mm 3 mps 747 mmHg 84%
    08:00 +29°C° 0.1 mm 3 mps 747 mmHg 73%
    09:00 +32°C° 0.1 mm 4 mps 747 mmHg 62%
    10:00 +34°C° 0 mm 4 mps 747 mmHg 51%
    11:00 +34°C° 0.1 mm 4 mps 747 mmHg 49%
    12:00 +35°C° 0.1 mm 4 mps 747 mmHg 46%
    13:00 +35°C° 0.1 mm 5 mps 746 mmHg 44%
    14:00 +35°C° 0 mm 5 mps 746 mmHg 45%
    15:00 +34°C° 0 mm 5 mps 746 mmHg 46%
    16:00 +33°C° 0 mm 5 mps 746 mmHg 53%
    17:00 +30°C° 0 mm 4 mps 746 mmHg 59%
    18:00 +29°C° 0 mm 4 mps 746 mmHg 65%
    19:00 +27°C° 0 mm 3 mps 746 mmHg 72%
    20:00 +27°C° 0 mm 3 mps 746 mmHg 76%
    21:00 +26°C° 0 mm 3 mps 747 mmHg 81%
    22:00 +25°C° 0 mm 3 mps 747 mmHg 84%
    23:00 +25°C° 0 mm 3 mps 747 mmHg 86%

    Tomorrow, 18 December, Monday

    Time Temperature Precipitation Wind Pressure Humidity
    00:00 +24°C° 0 mm 3 mps 747 mmHg 88%
    01:00 +24°C° 0 mm 3 mps 747 mmHg 90%
    02:00 +24°C° 0 mm 3 mps 747 mmHg 90%
    03:00 +24°C° 0 mm 3 mps 747 mmHg 91%
    04:00 +22°C° 0 mm 3 mps 747 mmHg 92%
    05:00 +24°C° 0 mm 3 mps 747 mmHg 89%
    06:00 +25°C° 0 mm 3 mps 747 mmHg 85%
    07:00 +25°C° 0 mm 3 mps 747 mmHg 82%
    08:00 +27°C° 0.1 mm 4 mps 747 mmHg 71%
    09:00 +30°C° 0.1 mm 4 mps 747 mmHg 61%
    10:00 +33°C° 0.1 mm 4 mps 747 mmHg 50%
    11:00 +33°C° 0.1 mm 4 mps 746 mmHg 48%
    12:00 +34°C° 0.1 mm 4 mps 746 mmHg 47%
    13:00 +35°C° 0.1 mm 5 mps 745 mmHg 45%
    14:00 +34°C° 0 mm 4 mps 745 mmHg 47%
    15:00 +34°C° 0 mm 4 mps 745 mmHg 49%
    16:00 +34°C° 0 mm 4 mps 744 mmHg 51%
    17:00 +32°C° 0 mm 4 mps 745 mmHg 59%
    18:00 +29°C° 0 mm 3 mps 745 mmHg 67%
    19:00 +27°C° 0 mm 3 mps 745 mmHg 75%
    20:00 +26°C° 0 mm 3 mps 746 mmHg 80%
    21:00 +25°C° 0 mm 3 mps 746 mmHg 86%
    22:00 +25°C° 0 mm 3 mps 747 mmHg 91%
    23:00 +25°C° 0.1 mm 3 mps 747 mmHg 92%

    Day after tomorrow, 19 December, Tuesday

    Time Temperature Precipitation Wind Pressure Humidity
    00:00 +24°C° 0.1 mm 2 mps 746 mmHg 93%
    01:00 +24°C° 0.1 mm 2 mps 746 mmHg 94%
    02:00 +24°C° 0.2 mm 2 mps 746 mmHg 94%
    03:00 +24°C° 0.2 mm 2 mps 746 mmHg 94%
    04:00 +24°C° 0.2 mm 2 mps 746 mmHg 94%
    05:00 +25°C° 0.2 mm 3 mps 746 mmHg 92%
    06:00 +25°C° 0.2 mm 3 mps 746 mmHg 89%
    07:00 +26°C° 0.2 mm 3 mps 747 mmHg 87%
    08:00 +28°C° 0.1 mm 3 mps 747 mmHg 78%
    09:00 +29°C° 0.1 mm 3 mps 747 mmHg 69%
    10:00 +31°C° 0.1 mm 3 mps 747 mmHg 59%
    11:00 +33°C° 0 mm 3 mps 746 mmHg 53%
    12:00 +34°C° 0 mm 3 mps 746 mmHg 47%
    13:00 +36°C° 0 mm 3 mps 745 mmHg 40%
    14:00 +35°C° 0 mm 3 mps 745 mmHg 40%
    15:00 +35°C° 0 mm 3 mps 744 mmHg 40%
    16:00 +35°C° 0 mm 3 mps 744 mmHg 40%
    17:00 +31°C° 0 mm 3 mps 744 mmHg 49%
    18:00 +29°C° 0 mm 3 mps 745 mmHg 58%
    19:00 +27°C° 0 mm 3 mps 745 mmHg 66%
    20:00 +26°C° 0 mm 2 mps 746 mmHg 72%
    21:00 +25°C° 0 mm 2 mps 746 mmHg 78%
    22:00 +24°C° 0 mm 2 mps 747 mmHg 85%
    23:00 +24°C° 0 mm 2 mps 747 mmHg 87%

    20 December, Wednesday

    Time Temperature Precipitation Wind Pressure Humidity
    00:00 +24°C° 0 mm 2 mps 747 mmHg 90%
    01:00 +23°C° 0 mm 2 mps 746 mmHg 92%
    02:00 +23°C° 0 mm 2 mps 746 mmHg 92%
    03:00 +24°C° 0 mm 2 mps 746 mmHg 91%
    04:00 +24°C° 0 mm 2 mps 745 mmHg 90%
    05:00 +25°C° 0 mm 1 mps 746 mmHg 87%
    06:00 +25°C° 0 mm 1 mps 746 mmHg 83%
    07:00 +26°C° 0 mm 1 mps 747 mmHg 79%
    08:00 +29°C° 0 mm 1 mps 747 mmHg 67%
    09:00 +31°C° 0 mm 1 mps 747 mmHg 54%
    10:00 +34°C° 0 mm 1 mps 747 mmHg 42%
    11:00 +35°C° 0 mm 2 mps 747 mmHg 39%
    12:00 +36°C° 0 mm 2 mps 746 mmHg 37%
    13:00 +37°C° 0 mm 2 mps 746 mmHg 35%
    14:00 +36°C° 0 mm 3 mps 745 mmHg 39%
    15:00 +35°C° 0 mm 3 mps 745 mmHg 42%
    16:00 +34°C° 0 mm 3 mps 744 mmHg 45%
    17:00 +33°C° 0 mm 3 mps 745 mmHg 54%
    18:00 +30°C° 0 mm 3 mps 745 mmHg 64%
    19:00 +28°C° 0 mm 3 mps 746 mmHg 73%
    20:00 +27°C° 0 mm 3 mps 746 mmHg 77%
    21:00 +26°C° 0 mm 3 mps 747 mmHg 81%
    22:00 +26°C° 0 mm 2 mps 747 mmHg 85%
    23:00 +25°C° 0 mm 2 mps 747 mmHg 86%

    21 December, Thursday

    Time Temperature Precipitation Wind Pressure Humidity
    00:00 +25°C° 0 mm 2 mps 746 mmHg 87%
    01:00 +25°C° 0 mm 2 mps 746 mmHg 87%
    02:00 +25°C° 0 mm 2 mps 746 mmHg 88%
    03:00 +25°C° 0 mm 2 mps 746 mmHg 89%
    04:00 +24°C° 0 mm 2 mps 746 mmHg 89%
    05:00 +25°C° 0 mm 2 mps 746 mmHg 85%
    06:00 +26°C° 0 mm 2 mps 746 mmHg 81%
    07:00 +27°C° 0 mm 2 mps 747 mmHg 77%
    08:00 +29°C° 0.1 mm 2 mps 747 mmHg 68%
    09:00 +31°C° 0.1 mm 2 mps 747 mmHg 60%
    10:00 +34°C° 0.1 mm 3 mps 747 mmHg 52%
    11:00 +35°C° 0.1 mm 3 mps 747 mmHg 50%
    12:00 +35°C° 0.1 mm 3 mps 746 mmHg 48%
    13:00 +36°C° 0.1 mm 4 mps 745 mmHg 46%
    14:00 +35°C° 0.1 mm 4 mps 745 mmHg 48%
    15:00 +35°C° 0.1 mm 4 mps 745 mmHg 50%
    16:00 +34°C° 0.1 mm 4 mps 744 mmHg 52%
    17:00 +32°C° 0 mm 4 mps 745 mmHg 60%
    18:00 +29°C° 0 mm 3 mps 745 mmHg 68%
    19:00 +27°C° 0 mm 3 mps 745 mmHg 76%
    20:00 +27°C° 0 mm 3 mps 746 mmHg 80%
    21:00 +26°C° 0 mm 3 mps 746 mmHg 84%
    22:00 +25°C° 0 mm 3 mps 747 mmHg 87%
    23:00 +25°C° 0 mm 3 mps 746 mmHg 88%

    22 December, Friday

    Time Temperature Precipitation Wind Pressure Humidity
    00:00 +24°C° 0 mm 2 mps 746 mmHg 90%
    01:00 +24°C° 0 mm 2 mps 746 mmHg 91%
    02:00 +24°C° 0 mm 2 mps 746 mmHg 91%
    03:00 +24°C° 0 mm 2 mps 746 mmHg 92%
    04:00 +23°C° 0 mm 2 mps 745 mmHg 93%
    05:00 +24°C° 0 mm 2 mps 746 mmHg 88%
    06:00 +25°C° 0 mm 2 mps 746 mmHg 84%
    07:00 +26°C° 0 mm 2 mps 747 mmHg 80%
    08:00 +28°C° 0 mm 2 mps 747 mmHg 69%
    09:00 +30°C° 0 mm 3 mps 747 mmHg 59%
    10:00 +34°C° 0 mm 3 mps 747 mmHg 48%
    11:00 +34°C° 0 mm 3 mps 746 mmHg 46%
    12:00 +35°C° 0 mm 3 mps 746 mmHg 44%
    13:00 +36°C° 0 mm 4 mps 745 mmHg 42%
    14:00 +35°C° 0 mm 4 mps 745 mmHg 44%
    15:00 +35°C° 0 mm 4 mps 744 mmHg 46%
    16:00 +34°C° 0 mm 4 mps 744 mmHg 48%
    17:00 +31°C° 0 mm 3 mps 744 mmHg 56%
    18:00 +29°C° 0 mm 3 mps 745 mmHg 64%
    19:00 +27°C° 0 mm 3 mps 745 mmHg 72%
    20:00 +27°C° 0 mm 3 mps 746 mmHg 78%
    21:00 +26°C° 0 mm 2 mps 746 mmHg 83%
    22:00 +25°C° 0 mm 2 mps 746 mmHg 89%
    23:00 +25°C° 0 mm 2 mps 746 mmHg 89%
    Show more